Flag for Germany Weather past 2 weeks in Neuburg an der Donau, Bavaria, Germany

Now
63 °F

Mild.


Feels Like: 63 °F
Forecast: 54 / 66 °F
Wind: 3 mph from West

Location: Neuburg / Donau

Current Time: Sep 30, 2014 at 8:42:33 PM

Latest Report: Sep 30, 2014 at 7:20 PM


Visibility: N/A

Pressure: 30.30 "Hg

Humidity: 88%

Dew point: 59 °F

Location of Neuburg an der DonauLocation

Historic Weather in Neuburg an der Donau — Graph

°F

Neuburg an der Donau temperature yesterday

Maximum temperature yesterday: 64 °F (at 4:20 PM)
Minimum temperature yesterday: 50 °F (at 6:20 AM)
Average temperature yesterday: 55 °F

Past Weeks' High & Low Weather Summary

 TemperatureHumidityPressure
High75 °F (Sep 19, 3:20 PM)100% (Sep 15, 11:20 PM)30.39 "Hg (Sep 15, 11:20 PM)
Low32 °F (Sep 24, 7:20 AM)51% (Sep 23, 3:20 PM)29.89 "Hg (Sep 17, 5:20 PM)
Average56 °F87%30.11 "Hg
* Reported Sep 15 7:20 PM — Sep 30 7:20 PM, Neuburg an der Donau, Weather by CustomWeather, © 2014

Note: Actual official high and low records may vary slightly from our data, if they occured in-between our weather recording intervals... More about our weather records

Advertising

Neuburg an der Donau weather history for previous 24 hours

 ConditionsComfort  
Time TempWeatherWind HumidityBarometerVisibility
7:20 PM
Sep 30
63 °FMild.3 mph88%30.30 "HgN/A
6:20 PM64 °FMild.2 mph83%30.30 "HgN/A
5:20 PM66 °FMore clouds than sun.5 mph73%30.27 "HgN/A
4:20 PM68 °FMore clouds than sun.5 mph69%30.30 "HgN/A
3:20 PM68 °FMore clouds than sun.3 mph73%30.30 "HgN/A
2:20 PM68 °FPartly sunny.2 mph69%30.30 "HgN/A
1:20 PM68 °FPartly sunny.1 mph73%30.30 "HgN/A
12:20 PM63 °FPartly sunny.1 mph88%30.30 "HgN/A
11:20 AM61 °FPartly sunny.1 mph88%30.30 "HgN/A
10:20 AM59 °FPartly sunny.2 mph94%30.30 "Hg4 mi
9:20 AM55 °FFog.No wind100%30.30 "Hg3 mi
8:20 AM54 °FFog.No wind100%30.30 "Hg2 mi
8:00 AM54 °FLight rain. Fog.No wind100%30.30 "Hg1 mi
7:20 AM52 °FFog.1 mph100%30.30 "Hg0 mi
7:01 AM52 °FFog.1 mph100%30.27 "Hg1 mi
6:20 AM52 °FFog.1 mph94%30.27 "Hg2 mi
5:20 AM52 °FCool.No wind100%30.27 "HgN/A
4:20 AM50 °FCool.1 mph100%30.27 "HgN/A
3:20 AM50 °FCool.1 mph100%30.27 "HgN/A
2:20 AM50 °FCool.No wind100%30.30 "HgN/A
1:20 AM48 °FCool.No wind100%30.27 "HgN/A
12:20 AM50 °FCool.1 mph100%30.30 "HgN/A
11:20 PM
Sep 29
50 °FCool.No wind100%30.30 "HgN/A
10:20 PM52 °FCool.No wind100%30.30 "HgN/A
9:20 PM54 °FCool.1 mph100%30.27 "HgN/A
8:20 PM57 °FCool.No wind100%30.27 "HgN/A
Weather by CustomWeather, © 2014

See weather overviewHow to use our weather pages